Location: Climax
(33.2048°N, 96.4497°W)
Time: 19:33:09
(UTC+00:00)

SL-4 R/B - Pass Details

Date: 10 July 2022
Orbit: 425 x 653 km, 51.6° (Epoch: 16 August)

Event Time Altitude Azimuth Distance (km) Brightness Sun altitude
Rises 09:01:00 0° 331° (NNW) 2,534 5.7 -24.1°
Reaches altitude 10° 09:04:36 10° 8° (N) 1,713 5.3 -23.6°
Maximum altitude 09:05:50 11° 26° (NNE) 1,657 5.5 -23.4°
Drops below altitude 10° 09:07:06 10° 45° (NE) 1,756 5.7 -23.3°
Sets 09:10:57 0° 81° (E) 2,716 6.3 -22.8°
